sat.trackr.live / text

‹ back to catalog

STARLINK-32128

NORAD 60272 · 2024-131T

PAYLOAD ACTIVE UNKNOWN

§ Identity

Operator
Country
US
Launch date
2024-07-27
Launch site
AFETR
Launch vehicle
Mass (kg)
RCS (m²)

Purposes: comms

External: N2YO · Heavens-Above · Gunter

§ Orbital elements

Epoch: 2026-09-21T07:05:49.819200Z

Period
93.85 min
Inclination
53.1590°
Eccentricity
0.0001324
Mean motion
15.34387200 rev/d
Perigee alt
461.8 km
Apogee alt
463.6 km
Semi-major
6,840.9 km
B*
-4.7003e-7
RAAN
221.9561°
Arg perigee
88.9872°
Mean anomaly
271.1282°
Rev number
12,169

§ Raw data

STARLINK-321281 60272U 24131T   26264.29571550 -.00000392  00000+0 -47003-6 0  99972 60272  53.1590 221.9561 0001324  88.9872 271.1282 15.34387200121695

JSON: /api/v1/satellites/60272 · /tle

For live sub-satellite position, see the globe view (requires WebGL).

§ Visibility from observer

Set your observer location to see the next 7 days of passes ≥ 10°. The values pass through the URL so the page stays shareable.

No JS? Fill the form by hand. The geolocation button needs JavaScript.